GW0309 Weather Reports


Display with metric or nautical units.
time (UTC)temp
F
wind
direction
speed
MPH
gust
MPH
rain 1hr
in
rain 24hr
in
rain mn
in
humidity
%
barometer
mb
20260507092456 0 141 1.0 1.0 0.00 0.00 0.00 1064.8
20260507091953 0 132 0.0 0.0 0.00 0.00 0.00 1064.8
20260507091449 0 129 0.0 0.0 0.00 0.00 0.00 1064.8
20260507090945 0 131 0.0 0.0 0.00 0.00 0.00 1064.8
20260507090441 0 131 0.0 0.0 0.00 0.00 0.00 1064.5
20260507085938 0 138 0.0 1.0 0.00 0.00 0.00 1064.8
20260507085435 0 133 0.0 0.0 0.00 0.00 0.00 1064.7
20260507084932 0 134 1.0 1.0 0.00 0.00 0.00 1064.4
20260507084429 0 130 0.0 0.0 0.00 0.00 0.00 1064.3
20260507083926 0 130 0.0 0.0 0.00 0.00 0.00 1064.7
20260507083423 0 133 0.0 1.0 0.00 0.00 0.00 1064.4
20260507082914 0 139 1.0 1.0 0.00 0.00 0.00 1064.5
20260507082410 0 130 0.0 0.0 0.00 0.00 0.00 1064.7
20260507081907 0 129 0.0 0.0 0.00 0.00 0.00 1064.6
20260507081403 0 126 0.0 0.0 0.00 0.00 0.00 1064.8
20260507080859 0 128 0.0 0.0 0.00 0.00 0.00 1064.8
20260507080356 0 129 0.0 0.0 0.00 0.00 0.00 1065.1
20260507075851 0 130 0.0 1.0 0.00 0.00 0.00 1064.9
20260507075348 0 129 0.0 0.0 0.00 0.00 0.00 1065.0
20260507074844 0 130 0.0 0.0 0.00 0.00 0.00 1065.0
20260507074342 0 134 0.0 0.0 0.00 0.00 0.00 1065.4
20260507073839 0 133 0.0 1.0 0.00 0.00 0.00 1065.2
20260507073335 0 129 0.0 0.0 0.00 0.00 0.00 1065.0
20260507072832 0 129 0.0 0.0 0.00 0.00 0.00 1065.2
20260507072330 0 129 0.0 0.0 0.00 0.00 0.00 1065.2
20260507071827 0 132 0.0 0.0 0.00 0.00 0.00 1065.3
20260507071324 0 129 0.0 0.0 0.00 0.00 0.00 1065.2
20260507070820 0 127 0.0 0.0 0.00 0.00 0.00 1065.4
20260507070318 0 126 0.0 0.0 0.00 0.00 0.00 1065.1
20260507065814 0 128 0.0 0.0 0.00 0.00 0.00 1065.2
20260507065311 0 129 0.0 0.0 0.00 0.00 0.00 1065.3
20260507064808 0 128 0.0 0.0 0.00 0.00 0.00 1065.2
20260507064307 0 129 0.0 0.0 0.00 0.00 0.00 1065.1
20260507063805 0 128 0.0 0.0 0.00 0.00 0.00 1065.0
20260507063301 0 129 0.0 0.0 0.00 0.00 0.00 1065.3
20260507062758 0 129 0.0 0.0 0.00 0.00 0.00 1065.0
20260507062255 0 129 0.0 0.0 0.00 0.00 0.00 1065.2
20260507061753 0 129 0.0 1.0 0.00 0.00 0.00 1065.2
20260507061250 0 132 1.0 1.0 0.00 0.00 0.00 1065.1
20260507060748 0 137 1.0 1.0 0.00 0.00 0.00 1065.3
20260507060245 0 138 1.0 1.0 0.00 0.00 0.00 1065.4
20260507055741 0 132 0.0 0.0 0.00 0.00 0.00 1065.5
20260507055237 0 135 0.0 0.0 0.00 0.00 0.00 1065.2
20260507054733 0 132 0.0 1.0 0.00 0.00 0.00 1065.5
20260507054230 0 146 1.0 1.0 0.00 0.00 0.00 1065.3
20260507053727 0 139 1.0 1.0 0.00 0.00 0.00 1065.2
20260507053225 0 128 0.0 1.0 0.00 0.00 0.00 1065.0
20260507052724 0 135 0.0 1.0 0.00 0.00 0.00 1065.3
20260507052220 0 126 1.0 1.0 0.00 0.00 0.00 1065.0
20260507051718 0 137 0.0 1.0 0.00 0.00 0.00 1065.2
20260507051214 0 137 0.0 1.0 0.00 0.00 0.00 1065.3
20260507050710 0 131 0.0 1.0 0.00 0.00 0.00 1065.1
20260507050208 0 126 0.0 1.0 0.00 0.00 0.00 1065.0
20260507045704 0 122 0.0 0.0 0.00 0.01 0.01 1065.0
20260507045200 0 115 0.0 1.0 0.00 0.01 0.01 1065.1
20260507044658 0 111 1.0 1.0 0.00 0.01 0.01 1065.0
20260507044154 0 103 1.0 2.0 0.00 0.01 0.01 1065.2
20260507043650 0 115 1.0 1.0 0.00 0.01 0.01 1064.9
20260507043148 0 123 0.0 0.0 0.00 0.01 0.01 1065.1
20260507042644 0 122 0.0 0.0 0.00 0.01 0.01 1065.0
20260507042139 0 125 0.0 1.0 0.00 0.01 0.01 1065.2
20260507041636 0 129 0.0 0.0 0.00 0.01 0.01 1064.8
20260507041132 0 130 0.0 0.0 0.00 0.01 0.01 1065.1
20260507040630 0 131 0.0 1.0 0.00 0.01 0.01 1065.0
20260507040126 0 111 1.0 1.0 0.00 0.01 0.01 1065.1
20260507035622 0 130 0.0 0.0 0.00 0.01 0.01 1065.1
20260507035118 0 132 0.0 1.0 0.00 0.01 0.01 1065.2
20260507034615 0 87 1.0 2.0 0.00 0.01 0.01 1065.0
20260507034113 0 119 1.0 2.0 0.00 0.01 0.01 1064.8
20260507033611 0 129 1.0 2.0 0.00 0.01 0.01 1065.0
20260507033108 0 13 2.0 2.0 0.00 0.01 0.01 1065.0
20260507032605 0 112 1.0 1.0 0.00 0.01 0.01 1065.0
20260507032056 0 107 1.0 1.0 0.00 0.01 0.01 1064.9
20260507031552 0 97 1.0 1.0 0.00 0.01 0.01 1064.8
20260507031050 0 90 1.0 2.0 0.00 0.01 0.01 1064.7
20260507030546 0 105 1.0 1.0 0.00 0.01 0.01 1064.7
20260507030044 0 98 1.0 1.0 0.00 0.01 0.01 1064.9
20260507025541 0 102 1.0 1.0 0.00 0.01 0.01 1064.6
20260507025038 0 107 1.0 2.0 0.00 0.01 0.01 1064.7
20260507024536 0 94 1.0 2.0 0.00 0.01 0.01 1064.7
20260507024032 0 80 1.0 2.0 0.00 0.01 0.01 1064.6
20260507023528 0 88 1.0 3.0 0.00 0.01 0.01 1064.7
20260507023026 0 87 1.0 3.0 0.00 0.01 0.01 1064.6
20260507022523 0 74 1.0 2.0 0.00 0.01 0.01 1064.7
20260507022018 0 104 1.0 3.0 0.00 0.01 0.01 1064.7
20260507021514 0 30 3.0 3.0 0.00 0.01 0.01 1064.6
20260507021011 0 58 2.0 2.0 0.00 0.01 0.01 1064.7
20260507020508 0 100 2.0 2.0 0.00 0.01 0.01 1064.5
20260507020005 0 90 1.0 2.0 0.00 0.01 0.01 1064.4
20260507015503 0 96 1.0 2.0 0.00 0.01 0.01 1064.4
20260507014955 0 91 1.0 2.0 0.00 0.01 0.01 1064.3
20260507014451 0 2 2.0 2.0 0.00 0.01 0.01 1064.4
20260507013947 0 102 1.0 2.0 0.00 0.01 0.01 1064.1
20260507013444 0 114 1.0 2.0 0.00 0.01 0.01 1064.4
20260507012941 0 114 1.0 2.0 0.00 0.01 0.01 1064.1
20260507012438 0 83 1.0 2.0 0.00 0.01 0.01 1064.2
20260507011934 0 70 1.0 2.0 0.00 0.01 0.01 1064.0
20260507011431 0 96 1.0 2.0 0.00 0.01 0.01 1063.9
20260507010926 0 80 1.0 2.0 0.00 0.01 0.01 1064.0
20260507010421 0 79 1.0 3.0 0.00 0.01 0.01 1063.8
20260507005918 0 102 1.0 2.0 0.00 0.01 0.01 1063.9
20260507005415 0 96 1.0 1.0 0.00 0.01 0.01 1063.9
20260507004912 0 99 1.0 2.0 0.00 0.01 0.01 1063.9
20260507004409 0 85 2.0 5.0 0.00 0.01 0.01 1063.5
20260507003906 0 25 2.0 3.0 0.00 0.01 0.01 1063.6
20260507003401 0 58 3.0 3.0 0.00 0.01 0.01 1063.6
20260507002857 0 346 3.0 5.0 0.00 0.01 0.01 1063.6
20260507002353 0 96 2.0 3.0 0.00 0.01 0.01 1063.4
20260507001850 0 343 2.0 5.0 0.00 0.01 0.01 1063.0
20260507001347 0 76 4.0 7.0 0.00 0.01 0.01 1063.0
20260507000844 0 47 3.0 5.0 0.00 0.01 0.01 1063.3
20260507000339 0 339 2.0 5.0 0.00 0.01 0.01 1063.3
20260506235836 0 11 3.0 5.0 0.00 0.01 0.01 1063.0
20260506235333 0 41 4.0 5.0 0.00 0.01 0.01 1062.9
20260506234828 0 51 3.0 7.0 0.00 0.01 0.01 1062.9
20260506234326 0 94 2.0 3.0 0.00 0.01 0.01 1062.8
20260506233823 0 323 4.0 6.0 0.00 0.01 0.01 1062.9
20260506233319 0 43 3.0 5.0 0.00 0.01 0.01 1063.0
20260506232816 0 70 2.0 3.0 0.00 0.01 0.01 1063.0
20260506232311 0 73 2.0 5.0 0.00 0.01 0.01 1062.8
20260506231808 0 341 4.0 6.0 0.00 0.01 0.01 1063.0
20260506231306 0 24 4.0 8.0 0.00 0.01 0.01 1062.8
20260506230803 0 66 3.0 6.0 0.00 0.01 0.01 1062.8
20260506230300 0 37 3.0 7.0 0.00 0.01 0.01 1062.6
20260506225756 0 47 4.0 6.0 0.00 0.01 0.01 1063.0
20260506225254 0 40 2.0 7.0 0.00 0.01 0.01 1062.9
20260506224751 0 54 3.0 7.0 0.00 0.01 0.01 1063.0
20260506224248 0 323 5.0 8.0 0.00 0.01 0.01 1063.1
20260506223744 0 328 5.0 10.0 0.00 0.01 0.01 1063.1
20260506223239 0 95 2.0 5.0 0.00 0.01 0.01 1062.9
20260506222731 0 344 5.0 7.0 0.00 0.01 0.01 1063.0
20260506222227 0 9 3.0 3.0 0.00 0.01 0.01 1063.0
20260506221725 0 37 3.0 8.0 0.00 0.01 0.01 1063.0
20260506221223 0 44 3.0 5.0 0.00 0.01 0.01 1062.9
20260506220720 0 357 3.0 7.0 0.00 0.01 0.01 1062.9
20260506220214 0 328 2.0 6.0 0.00 0.01 0.01 1063.0
20260506215711 0 69 3.0 8.0 0.00 0.01 0.01 1063.0
20260506215207 0 353 3.0 8.0 0.00 0.01 0.01 1063.0
20260506214704 0 14 4.0 8.0 0.00 0.01 0.01 1062.9
20260506214201 0 201 3.0 7.0 0.00 0.01 0.01 1063.1
20260506213659 0 34 4.0 7.0 0.00 0.01 0.01 1063.0
20260506213156 0 131 2.0 6.0 0.00 0.01 0.01 1063.0
20260506212653 0 42 4.0 5.0 0.00 0.01 0.01 1063.0
20260506212148 0 88 3.0 5.0 0.00 0.01 0.01 1062.9
20260506211644 0 48 4.0 10.0 0.00 0.01 0.01 1062.8
20260506211141 0 31 3.0 6.0 0.00 0.01 0.01 1062.8
20260506210638 0 65 3.0 5.0 0.00 0.01 0.01 1062.9
20260506210135 0 30 3.0 8.0 0.00 0.01 0.01 1063.1
20260506205632 0 73 2.0 3.0 0.00 0.01 0.01 1063.4
20260506205126 0 317 5.0 7.0 0.00 0.01 0.01 1063.1
20260506204625 0 47 2.0 5.0 0.00 0.01 0.01 1063.1
20260506204121 0 58 3.0 6.0 0.00 0.01 0.01 1063.0
20260506203620 0 306 3.0 6.0 0.00 0.01 0.01 1063.5
20260506203116 0 98 1.0 3.0 0.00 0.01 0.01 1063.6
20260506202614 0 331 3.0 6.0 0.00 0.01 0.01 1063.8
20260506202110 0 92 1.0 3.0 0.00 0.01 0.01 1063.7
20260506201607 0 313 4.0 5.0 0.00 0.01 0.01 1063.8
20260506201104 0 43 1.0 9.0 0.00 0.01 0.01 1063.8
20260506200600 0 18 5.0 8.0 0.00 0.01 0.01 1063.9
20260506200057 0 37 3.0 5.0 0.00 0.01 0.01 1064.0
20260506195553 0 357 4.0 6.0 0.00 0.01 0.01 1064.0
20260506195050 0 321 3.0 6.0 0.00 0.01 0.01 1063.8
20260506194548 0 339 4.0 8.0 0.00 0.01 0.01 1064.1
20260506194043 0 123 1.0 6.0 0.00 0.01 0.01 1064.0
20260506193541 0 289 5.0 7.0 0.00 0.01 0.01 1064.3
20260506193039 0 11 4.0 7.0 0.00 0.01 0.01 1064.1
20260506192535 0 25 3.0 5.0 0.00 0.01 0.01 1064.4
20260506192031 0 128 3.0 6.0 0.00 0.01 0.01 1064.2
20260506191528 0 341 4.0 5.0 0.00 0.01 0.01 1064.5
20260506191024 0 18 4.0 7.0 0.00 0.01 0.01 1064.3
20260506190521 0 345 4.0 9.0 0.00 0.01 0.01 1064.5
20260506190019 0 20 3.0 7.0 0.00 0.01 0.01 1064.3
20260506185515 0 27 4.0 7.0 0.00 0.01 0.01 1064.6
20260506185012 0 296 3.0 9.0 0.00 0.01 0.01 1064.8
20260506184509 0 59 3.0 9.0 0.00 0.01 0.01 1064.5
20260506184006 0 155 5.0 7.0 0.00 0.01 0.01 1064.6
20260506183503 0 86 2.0 5.0 0.00 0.01 0.01 1064.6
20260506182959 0 45 4.0 5.0 0.00 0.01 0.01 1064.7
20260506182456 0 93 3.0 7.0 0.00 0.01 0.01 1064.8
20260506181953 0 33 3.0 8.0 0.00 0.01 0.01 1064.8
20260506181451 0 123 0.0 3.0 0.00 0.01 0.01 1064.7
20260506180948 0 45 2.0 5.0 0.00 0.01 0.01 1064.7
20260506180444 0 22 2.0 6.0 0.00 0.01 0.01 1064.8
20260506175941 0 43 2.0 7.0 0.00 0.01 0.01 1064.9
20260506175438 0 63 2.0 3.0 0.00 0.01 0.01 1064.9
20260506174934 0 113 0.0 3.0 0.00 0.01 0.01 1064.7
20260506174432 0 336 4.0 6.0 0.00 0.01 0.01 1064.9
20260506173928 0 26 2.0 3.0 0.00 0.01 0.01 1064.6
20260506173426 0 117 0.0 5.0 0.00 0.01 0.01 1064.7
20260506172923 0 336 1.0 5.0 0.00 0.01 0.01 1064.7
20260506172419 0 96 3.0 5.0 0.00 0.01 0.01 1064.6
20260506171916 0 30 3.0 5.0 0.00 0.01 0.01 1064.5
20260506171413 0 334 5.0 8.0 0.00 0.01 0.01 1064.6
20260506170912 0 34 4.0 8.0 0.00 0.01 0.01 1064.7
20260506170407 0 43 3.0 7.0 0.00 0.01 0.01 1064.9
20260506165906 0 115 1.0 5.0 0.00 0.01 0.01 1064.7
20260506165404 0 330 3.0 5.0 0.00 0.01 0.01 1064.9
20260506164855 0 166 1.0 3.0 0.00 0.01 0.01 1064.9
20260506164351 0 86 2.0 6.0 0.00 0.01 0.01 1064.7
20260506163849 0 36 3.0 3.0 0.00 0.01 0.01 1064.8
20260506163343 0 62 3.0 6.0 0.00 0.01 0.01 1064.8
20260506162838 0 46 5.0 9.0 0.00 0.01 0.01 1064.8
20260506162337 0 300 5.0 6.0 0.00 0.01 0.01 1064.7
20260506161834 0 54 4.0 6.0 0.00 0.01 0.01 1064.6
20260506161331 0 32 2.0 5.0 0.00 0.01 0.01 1064.5
20260506160829 0 59 3.0 6.0 0.00 0.01 0.01 1064.2
20260506160325 0 351 4.0 5.0 0.00 0.01 0.01 1064.1
20260506155824 0 149 1.0 3.0 0.00 0.01 0.01 1064.3
20260506155320 0 68 3.0 5.0 0.00 0.01 0.01 1064.5
20260506153433 0 348 3.0 7.0 0.00 0.01 0.01 1064.2
20260506152930 0 49 2.0 3.0 0.00 0.01 0.01 1064.3
20260506152427 0 91 2.0 3.0 0.00 0.01 0.01 1064.3
20260506151926 0 283 2.0 7.0 0.00 0.01 0.01 1064.0
20260506151422 0 350 4.0 5.0 0.00 0.01 0.01 1064.0
20260506150920 0 312 3.0 5.0 0.00 0.01 0.01 1064.2
20260506150415 0 78 2.0 7.0 0.00 0.01 0.01 1064.1
20260506145913 0 73 1.0 3.0 0.00 0.01 0.01 1063.9
20260506145409 0 114 2.0 5.0 0.00 0.01 0.01 1063.8
20260506144907 0 249 3.0 6.0 0.00 0.01 0.01 1063.9
20260506144402 0 48 2.0 8.0 0.00 0.01 0.01 1063.9
20260506143901 0 86 3.0 5.0 0.00 0.01 0.01 1064.0
20260506143358 0 334 3.0 6.0 0.00 0.01 0.01 1063.9
20260506142856 0 23 3.0 5.0 0.00 0.01 0.01 1063.9
20260506142354 0 44 2.0 6.0 0.00 0.01 0.01 1063.5
20260506141852 0 47 1.0 3.0 0.00 0.01 0.01 1063.7
20260506141350 0 39 4.0 6.0 0.00 0.01 0.01 1063.5
20260506140848 0 75 0.0 2.0 0.00 0.01 0.01 1063.4
20260506140344 0 102 2.0 5.0 0.00 0.01 0.01 1063.8
20260506135841 0 313 2.0 5.0 0.00 0.01 0.01 1063.6
20260506135338 0 310 4.0 5.0 0.00 0.01 0.01 1063.6
20260506134834 0 133 0.0 2.0 0.00 0.01 0.01 1063.7
20260506134331 0 325 5.0 6.0 0.00 0.01 0.01 1063.8
20260506133828 0 331 3.0 5.0 0.00 0.01 0.01 1064.0
20260506133324 0 106 1.0 2.0 0.00 0.01 0.01 1063.9
20260506132821 0 104 1.0 2.0 0.00 0.01 0.01 1064.1
20260506132318 0 58 3.0 3.0 0.00 0.01 0.01 1063.8
20260506131816 0 74 2.0 3.0 0.00 0.01 0.01 1063.9
20260506131312 0 86 1.0 5.0 0.00 0.01 0.01 1063.9
20260506130809 0 358 2.0 2.0 0.00 0.01 0.01 1063.7
20260506130306 0 103 2.0 2.0 0.00 0.01 0.01 1063.8
20260506125804 0 133 0.0 2.0 0.00 0.01 0.01 1063.7
20260506125305 0 86 3.0 5.0 0.00 0.01 0.01 1063.9
20260506124800 0 131 1.0 2.0 0.00 0.01 0.01 1064.0
20260506124257 0 114 1.0 6.0 0.00 0.01 0.01 1063.7
20260506123754 0 3 2.0 3.0 0.00 0.01 0.01 1063.6
20260506123253 0 310 1.0 2.0 0.00 0.01 0.01 1063.6
20260506122749 0 69 1.0 3.0 0.00 0.01 0.01 1063.8
20260506122246 0 337 3.0 5.0 0.00 0.01 0.01 1063.7
20260506121745 0 148 1.0 2.0 0.00 0.01 0.01 1063.7
20260506121241 0 236 1.0 2.0 0.00 0.01 0.01 1063.8
20260506120738 0 148 1.0 1.0 0.00 0.01 0.01 1063.7
20260506120236 0 102 1.0 2.0 0.00 0.01 0.01 1063.3
20260506115734 0 158 1.0 2.0 0.00 0.01 0.01 1063.3
20260506115232 0 164 1.0 2.0 0.00 0.01 0.01 1063.4
20260506114729 0 324 3.0 3.0 0.00 0.01 0.01 1062.9
20260506114227 0 116 0.0 2.0 0.00 0.01 0.01 1062.7
20260506113725 0 101 2.0 6.0 0.00 0.01 0.01 1062.7
20260506113222 0 70 3.0 5.0 0.00 0.01 0.01 1062.2
20260506112718 0 321 4.0 7.0 0.00 0.01 0.01 1062.3
20260506112216 0 8 2.0 5.0 0.00 0.01 0.01 1062.4
20260506111713 0 98 1.0 5.0 0.00 0.01 0.01 1062.6
20260506111212 0 6 3.0 3.0 0.00 0.01 0.01 1062.4
20260506110708 0 306 3.0 6.0 0.00 0.01 0.01 1062.5
20260506110206 0 82 2.0 5.0 0.00 0.01 0.01 1062.5
20260506105702 0 334 4.0 5.0 0.00 0.01 0.01 1062.5
20260506105159 0 186 1.0 3.0 0.00 0.01 0.01 1062.4
20260506104657 0 321 2.0 2.0 0.00 0.01 0.01 1061.8
20260506104155 0 148 1.0 2.0 0.00 0.01 0.01 1062.2
20260506103651 0 315 3.0 3.0 0.00 0.01 0.01 1061.8
20260506103148 0 99 2.0 3.0 0.00 0.01 0.01 1061.7
20260506102647 0 324 3.0 3.0 0.00 0.01 0.01 1062.2
20260506102144 0 225 2.0 2.0 0.00 0.01 0.01 1062.1
20260506101640 0 32 2.0 2.0 0.00 0.01 0.01 1062.1
20260506101137 0 158 1.0 2.0 0.00 0.01 0.01 1062.2
20260506100636 0 60 1.0 2.0 0.00 0.01 0.01 1062.0
20260506100133 0 126 1.0 1.0 0.00 0.01 0.01 1062.1
20260506095632 0 129 1.0 2.0 0.00 0.01 0.01 1062.0
20260506095128 0 154 1.0 1.0 0.00 0.01 0.01 1062.0
20260506094626 0 236 2.0 2.0 0.00 0.01 0.01 1061.7
20260506094123 0 88 2.0 2.0 0.00 0.01 0.01 1061.4
20260506093622 0 138 2.0 2.0 0.00 0.01 0.01 1061.2
20260506093119 0 183 1.0 2.0 0.00 0.01 0.01 1060.7